Naiad — WAGB — position and weather

sailwx.info

Track history (hours):
 
Tides and Currents Weather Stations Pressure Air Temp Water Temp Dewpoint Dewpoint Depression Visibility Wind Speed Wind Dir Waves Ship Positions

Naiad

Owner: S.E. Combined Services of CA, SAN FRANCISCO, CA. More information available from US FCC via Universal Licensing System and Coast Guard Vessel Documentation Center.

Last reported at 2017-Oct-18 17:42 UTC. Time now 2017-Oct-19 05:37 UTC.
Position N 37°50' W 122°26'.

Length 17 m.

Type: Passenger vessel. MMSI: 366864140.

Date/timePositionNaut miles runAvg speedWind from/ knotsBaromVisibWave heightAir tempDewpointWater temp
2017-Oct-18 17:42N 37°50' W 122°26'2 0.1
2017-Oct-17 06:57N 37°49' W 122°25'0 0.0
2017-Oct-16 23:44N 37°49' W 122°25'0 0.0
2017-Oct-16 23:26N 37°49' W 122°25'0 0.0
2017-Oct-16 22:56N 37°49' W 122°25'0 0.0
2017-Oct-16 22:20N 37°49' W 122°25'0 0.0
2017-Oct-16 21:56N 37°49' W 122°25'0 0.0
2017-Oct-16 21:26N 37°49' W 122°25'0 0.0
2017-Oct-16 20:59N 37°49' W 122°25'0 0.0
2017-Oct-16 20:26N 37°49' W 122°25'0 0.0
2017-Oct-16 19:50N 37°49' W 122°25'0 0.0
2017-Oct-16 19:29N 37°49' W 122°25'0 0.0
2017-Oct-16 18:59N 37°49' W 122°25'0 0.0
2017-Oct-16 17:17N 37°49' W 122°25'0 0.5
2017-Oct-16 16:59N 37°49' W 122°25'0 0.0
2017-Oct-15 21:08N 37°49' W 122°25'1 7.7
2017-Oct-15 21:00N 37°49' W 122°26'2 4.2
2017-Oct-15 20:27N 37°51' W 122°28'3 2.0
2017-Oct-15 18:58N 37°49' W 122°25'3 6.7
2017-Oct-15 18:27N 37°49' W 122°29'3 0.1
2017-Oct-14 16:51N 37°49' W 122°26'3 8.3
2017-Oct-14 16:29N 37°49' W 122°30'4 0.2
2017-Oct-13 21:32N 37°49' W 122°25'0 0.0
2017-Oct-13 21:05N 37°49' W 122°25'0 0.6
2017-Oct-13 20:58N 37°49' W 122°25'3 6.6
2017-Oct-13 20:30N 37°50' W 122°28'3 1.7
2017-Oct-13 18:41N 37°49' W 122°25'0 0.0
2017-Oct-13 18:20N 37°49' W 122°25'0 0.0
2017-Oct-13 17:59N 37°49' W 122°25'2 0.1
2017-Oct-12 20:23N 37°50' W 122°26'1 1.4
2017-Oct-12 20:00N 37°50' W 122°27'2 1.5
2017-Oct-12 18:38N 37°49' W 122°25'0 0.0
2017-Oct-12 18:26N 37°49' W 122°25'0 0.0
2017-Oct-12 17:56N 37°49' W 122°25'0 0.0
2017-Oct-12 17:26N 37°49' W 122°25'3 5.6
2017-Oct-12 16:55N 37°49' W 122°28'0 1.0
2017-Oct-12 16:30N 37°49' W 122°29'3 0.2
2017-Oct-12 00:41N 37°49' W 122°25'0 0.0
2017-Oct-12 00:26N 37°49' W 122°25'0 0.0
2017-Oct-11 23:56N 37°49' W 122°25'0 0.0
2017-Oct-11 23:29N 37°49' W 122°25'0 0.0
2017-Oct-11 22:59N 37°49' W 122°25'0 0.0
2017-Oct-11 22:29N 37°49' W 122°25'0 0.0
2017-Oct-11 21:59N 37°49' W 122°25'0 0.0
2017-Oct-11 21:29N 37°49' W 122°25'1 2.8
2017-Oct-11 21:00N 37°49' W 122°26'1 2.1
2017-Oct-11 20:30N 37°49' W 122°28'2 1.6
2017-Oct-11 19:03N 37°49' W 122°25'0 0.0
2017-Oct-11 18:57N 37°49' W 122°25'0 0.1
2017-Oct-11 18:29N 37°49' W 122°25'2 3.8
2017-Oct-11 17:59N 37°50' W 122°27'  
Track history (hours):
 
Tides and Currents Weather Stations Pressure Air Temp Water Temp Dewpoint Dewpoint Depression Visibility Wind Speed Wind Dir Waves Ship Positions

Naiad

Owner: S.E. Combined Services of CA, SAN FRANCISCO, CA. More information available from US FCC via Universal Licensing System and Coast Guard Vessel Documentation Center.

Last reported at 2017-Oct-18 17:42 UTC. Time now 2017-Oct-19 05:37 UTC.
Position N 37°50' W 122°26'.

Length 17 m.

Type: Passenger vessel. MMSI: 366864140.

Date/timePositionNaut miles runAvg speedWind from/ knotsBaromVisibWave heightAir tempDewpointWater temp
2017-Oct-18 17:42N 37°50' W 122°26'2 0.1
2017-Oct-17 06:57N 37°49' W 122°25'0 0.0
2017-Oct-16 23:44N 37°49' W 122°25'0 0.0
2017-Oct-16 23:26N 37°49' W 122°25'0 0.0
2017-Oct-16 22:56N 37°49' W 122°25'0 0.0
2017-Oct-16 22:20N 37°49' W 122°25'0 0.0
2017-Oct-16 21:56N 37°49' W 122°25'0 0.0
2017-Oct-16 21:26N 37°49' W 122°25'0 0.0
2017-Oct-16 20:59N 37°49' W 122°25'0 0.0
2017-Oct-16 20:26N 37°49' W 122°25'0 0.0
2017-Oct-16 19:50N 37°49' W 122°25'0 0.0
2017-Oct-16 19:29N 37°49' W 122°25'0 0.0
2017-Oct-16 18:59N 37°49' W 122°25'0 0.0
2017-Oct-16 17:17N 37°49' W 122°25'0 0.5
2017-Oct-16 16:59N 37°49' W 122°25'0 0.0
2017-Oct-15 21:08N 37°49' W 122°25'1 7.7
2017-Oct-15 21:00N 37°49' W 122°26'2 4.2
2017-Oct-15 20:27N 37°51' W 122°28'3 2.0
2017-Oct-15 18:58N 37°49' W 122°25'3 6.7
2017-Oct-15 18:27N 37°49' W 122°29'3 0.1
2017-Oct-14 16:51N 37°49' W 122°26'3 8.3
2017-Oct-14 16:29N 37°49' W 122°30'4 0.2
2017-Oct-13 21:32N 37°49' W 122°25'0 0.0
2017-Oct-13 21:05N 37°49' W 122°25'0 0.6
2017-Oct-13 20:58N 37°49' W 122°25'3 6.6
2017-Oct-13 20:30N 37°50' W 122°28'3 1.7
2017-Oct-13 18:41N 37°49' W 122°25'0 0.0
2017-Oct-13 18:20N 37°49' W 122°25'0 0.0
2017-Oct-13 17:59N 37°49' W 122°25'2 0.1
2017-Oct-12 20:23N 37°50' W 122°26'1 1.4
2017-Oct-12 20:00N 37°50' W 122°27'2 1.5
2017-Oct-12 18:38N 37°49' W 122°25'0 0.0
2017-Oct-12 18:26N 37°49' W 122°25'0 0.0
2017-Oct-12 17:56N 37°49' W 122°25'0 0.0
2017-Oct-12 17:26N 37°49' W 122°25'3 5.6
2017-Oct-12 16:55N 37°49' W 122°28'0 1.0
2017-Oct-12 16:30N 37°49' W 122°29'3 0.2
2017-Oct-12 00:41N 37°49' W 122°25'0 0.0
2017-Oct-12 00:26N 37°49' W 122°25'0 0.0
2017-Oct-11 23:56N 37°49' W 122°25'0 0.0
2017-Oct-11 23:29N 37°49' W 122°25'0 0.0
2017-Oct-11 22:59N 37°49' W 122°25'0 0.0
2017-Oct-11 22:29N 37°49' W 122°25'0 0.0
2017-Oct-11 21:59N 37°49' W 122°25'0 0.0
2017-Oct-11 21:29N 37°49' W 122°25'1 2.8
2017-Oct-11 21:00N 37°49' W 122°26'1 2.1
2017-Oct-11 20:30N 37°49' W 122°28'2 1.6
2017-Oct-11 19:03N 37°49' W 122°25'0 0.0
2017-Oct-11 18:57N 37°49' W 122°25'0 0.1
2017-Oct-11 18:29N 37°49' W 122°25'2 3.8
2017-Oct-11 17:59N 37°50' W 122°27'  

Dump ship's entire track history